Time,TemperatureF,DewpointF,PressureIn,WindDirection,WindDirectionDegrees,WindSpeedMPH,WindSpeedGustMPH,Humidity,HourlyPrecipIn,Conditions,Clouds,dailyrainin,SoftwareType,DateUTC
2013-07-17 00:00:00,63.0,53.6,29.88,NNW,342,0.0,5.8,72,0.00,,---,0.00,cosweather0.1e,2013-07-17 07:00:00,
2013-07-17 00:05:00,63.0,53.6,29.88,NW,312,0.0,6.3,73,0.00,,---,0.00,cosweather0.1e,2013-07-17 07:05:00,
2013-07-17 00:10:00,63.0,53.6,29.88,NNW,328,0.0,3.1,73,0.00,,---,0.00,cosweather0.1e,2013-07-17 07:10:00,
2013-07-17 00:15:00,63.0,53.6,29.88,WNW,295,0.0,3.6,73,0.00,,---,0.00,cosweather0.1e,2013-07-17 07:15:00,
2013-07-17 00:20:00,63.0,53.6,29.88,NNW,327,0.0,3.6,73,0.00,,---,0.00,cosweather0.1e,2013-07-17 07:20:00,
2013-07-17 00:25:00,63.0,53.6,29.88,South,171,0.0,2.7,73,0.00,,---,0.00,cosweather0.1e,2013-07-17 07:25:00,
2013-07-17 00:30:00,63.0,53.6,29.88,West,277,0.0,3.1,73,0.00,,---,0.00,cosweather0.1e,2013-07-17 07:30:00,
2013-07-17 00:35:00,62.8,53.6,29.88,West,276,0.0,4.0,73,0.00,,---,0.00,cosweather0.1e,2013-07-17 07:35:00,
2013-07-17 00:40:00,62.8,53.6,29.88,NW,326,0.0,3.1,73,0.00,,---,0.00,cosweather0.1e,2013-07-17 07:40:00,
2013-07-17 00:45:00,62.8,53.6,29.88,WNW,287,0.0,4.0,73,0.00,,---,0.00,cosweather0.1e,2013-07-17 07:45:00,
2013-07-17 00:50:00,62.8,53.6,29.88,NNW,339,0.0,4.0,73,0.00,,---,0.00,cosweather0.1e,2013-07-17 07:50:00,
2013-07-17 00:55:00,62.8,53.6,29.88,NNW,336,0.0,2.2,73,0.00,,---,0.00,cosweather0.1e,2013-07-17 07:55:00,
2013-07-17 01:00:00,62.8,53.6,29.88,NNW,334,0.0,4.0,73,0.00,,---,0.00,cosweather0.1e,2013-07-17 08:00:00,
2013-07-17 01:05:00,62.8,53.6,29.88,NNW,343,0.0,4.0,73,0.00,,---,0.00,cosweather0.1e,2013-07-17 08:05:00,
2013-07-17 01:10:00,62.8,53.6,29.88,NW,318,0.0,3.6,73,0.00,,---,0.00,cosweather0.1e,2013-07-17 08:10:00,
2013-07-17 01:15:00,62.8,53.6,29.88,North,349,0.0,3.1,73,0.00,,---,0.00,cosweather0.1e,2013-07-17 08:15:00,
2013-07-17 01:20:00,62.8,53.6,29.88,NW,318,0.0,0.0,73,0.00,,---,0.00,cosweather0.1e,2013-07-17 08:20:00,
2013-07-17 01:25:00,62.8,53.6,29.88,SSW,207,0.0,3.6,73,0.00,,---,0.00,cosweather0.1e,2013-07-17 08:25:00,
2013-07-17 01:30:00,62.8,53.6,29.88,SW,214,0.0,0.0,73,0.00,,---,0.00,cosweather0.1e,2013-07-17 08:30:00,
2013-07-17 01:35:00,62.6,53.6,29.88,WNW,291,0.0,0.0,73,0.00,,---,0.00,cosweather0.1e,2013-07-17 08:35:00,
2013-07-17 01:40:00,62.6,53.6,29.88,WNW,294,0.0,0.0,73,0.00,,---,0.00,cosweather0.1e,2013-07-17 08:40:00,
2013-07-17 01:45:00,62.6,53.6,29.88,WNW,294,0.0,2.7,73,0.00,,---,0.00,cosweather0.1e,2013-07-17 08:45:00,
2013-07-17 01:50:00,62.6,53.6,29.88,West,278,0.0,4.0,72,0.00,,---,0.00,cosweather0.1e,2013-07-17 08:50:00,
2013-07-17 01:55:00,62.6,53.6,29.88,NNW,337,0.0,5.4,72,0.00,,---,0.00,cosweather0.1e,2013-07-17 08:55:00,
2013-07-17 02:00:00,62.6,53.6,29.88,WNW,301,0.0,4.0,72,0.00,,---,0.00,cosweather0.1e,2013-07-17 09:00:00,
2013-07-17 02:05:00,62.6,53.6,29.88,WSW,240,0.0,2.7,72,0.00,,---,0.00,cosweather0.1e,2013-07-17 09:05:00,
2013-07-17 02:10:00,62.4,53.6,29.88,WSW,244,0.0,0.0,73,0.00,,---,0.00,cosweather0.1e,2013-07-17 09:10:00,
2013-07-17 02:15:00,62.4,53.6,29.88,NW,323,0.0,3.1,73,0.00,,---,0.00,cosweather0.1e,2013-07-17 09:15:00,
2013-07-17 02:20:00,62.4,53.6,29.88,NNW,338,0.0,4.0,73,0.00,,---,0.00,cosweather0.1e,2013-07-17 09:20:00,
2013-07-17 02:25:00,62.4,53.6,29.92,WNW,288,0.0,0.0,73,0.00,,---,0.00,cosweather0.1e,2013-07-17 09:25:00,
2013-07-17 02:30:00,62.4,53.6,29.92,WNW,293,0.0,3.1,73,0.00,,---,0.00,cosweather0.1e,2013-07-17 09:30:00,
2013-07-17 02:36:00,62.4,53.6,29.92,WNW,302,0.0,4.0,73,0.00,,---,0.00,cosweather0.1e,2013-07-17 09:36:00,
2013-07-17 02:41:00,62.2,53.6,29.88,South,172,0.0,0.0,73,0.00,,---,0.00,cosweather0.1e,2013-07-17 09:41:00,
2013-07-17 02:46:00,62.2,53.6,29.88,West,274,0.0,4.0,73,0.00,,---,0.00,cosweather0.1e,2013-07-17 09:46:00,
2013-07-17 02:51:00,62.2,53.6,29.88,NW,312,0.0,2.2,73,0.00,,---,0.00,cosweather0.1e,2013-07-17 09:51:00,
2013-07-17 02:56:00,62.2,53.6,29.88,West,268,0.0,2.2,73,0.00,,---,0.00,cosweather0.1e,2013-07-17 09:56:00,
2013-07-17 03:01:00,62.1,53.6,29.88,WSW,240,0.0,3.6,73,0.00,,---,0.00,cosweather0.1e,2013-07-17 10:01:00,
2013-07-17 03:06:00,62.1,53.6,29.88,WNW,303,0.0,3.1,74,0.00,,---,0.00,cosweather0.1e,2013-07-17 10:06:00,
2013-07-17 03:11:00,61.9,53.6,29.88,WNW,286,0.0,2.7,74,0.00,,---,0.00,cosweather0.1e,2013-07-17 10:11:00,
2013-07-17 03:16:00,61.9,53.6,29.88,SSW,193,0.0,3.6,74,0.00,,---,0.00,cosweather0.1e,2013-07-17 10:16:00,
2013-07-17 03:21:00,61.9,53.6,29.88,SW,228,0.0,0.0,74,0.00,,---,0.00,cosweather0.1e,2013-07-17 10:21:00,
2013-07-17 03:26:00,61.9,53.6,29.88,WNW,288,0.0,5.4,74,0.00,,---,0.00,cosweather0.1e,2013-07-17 10:26:00,
2013-07-17 03:31:00,61.9,53.6,29.88,WNW,302,0.0,2.7,74,0.00,,---,0.00,cosweather0.1e,2013-07-17 10:31:00,
2013-07-17 03:36:00,62.1,53.6,29.88,NW,313,0.0,2.7,74,0.00,,---,0.00,cosweather0.1e,2013-07-17 10:36:00,
2013-07-17 03:41:00,62.1,53.6,29.88,NW,321,0.0,6.3,74,0.00,,---,0.00,cosweather0.1e,2013-07-17 10:41:00,
2013-07-17 03:46:00,61.9,53.6,29.88,NW,318,0.0,3.6,74,0.00,,---,0.00,cosweather0.1e,2013-07-17 10:46:00,
2013-07-17 03:51:00,61.9,53.6,29.88,NW,321,0.0,0.0,74,0.00,,---,0.00,cosweather0.1e,2013-07-17 10:51:00,
2013-07-17 03:56:00,61.9,53.6,29.88,West,271,0.0,0.0,74,0.00,,---,0.00,cosweather0.1e,2013-07-17 10:56:00,
2013-07-17 04:01:00,62.1,53.6,29.88,West,272,0.0,0.0,74,0.00,,---,0.00,cosweather0.1e,2013-07-17 11:01:00,
2013-07-17 04:06:00,61.9,53.6,29.88,NNW,341,0.0,5.8,74,0.00,,---,0.00,cosweather0.1e,2013-07-17 11:06:00,
2013-07-17 04:11:00,61.9,55.4,29.88,NNW,333,0.0,2.7,75,0.00,,---,0.00,cosweather0.1e,2013-07-17 11:11:00,
2013-07-17 04:16:00,61.7,55.4,29.88,South,191,0.0,0.0,75,0.00,,---,0.00,cosweather0.1e,2013-07-17 11:16:00,
2013-07-17 04:21:00,61.7,55.4,29.88,West,261,0.0,2.7,75,0.00,,---,0.00,cosweather0.1e,2013-07-17 11:21:00,
2013-07-17 04:26:00,61.7,55.4,29.88,WNW,297,0.0,4.0,75,0.00,,---,0.00,cosweather0.1e,2013-07-17 11:26:00,
2013-07-17 04:31:00,61.5,53.6,29.88,NW,317,0.0,2.7,76,0.00,,---,0.00,cosweather0.1e,2013-07-17 11:31:00,
2013-07-17 04:36:00,61.5,53.6,29.88,SW,233,0.0,2.7,76,0.00,,---,0.00,cosweather0.1e,2013-07-17 11:36:00,
2013-07-17 04:41:00,61.5,53.6,29.88,West,269,0.0,0.0,76,0.00,,---,0.00,cosweather0.1e,2013-07-17 11:41:00,
2013-07-17 04:46:00,61.7,55.4,29.88,NW,316,0.0,0.0,76,0.00,,---,0.00,cosweather0.1e,2013-07-17 11:46:00,
2013-07-17 04:51:00,61.9,55.4,29.88,NNW,329,0.0,2.7,76,0.00,,---,0.00,cosweather0.1e,2013-07-17 11:51:00,
2013-07-17 04:56:00,61.9,55.4,29.88,WNW,283,0.0,0.0,75,0.00,,---,0.00,cosweather0.1e,2013-07-17 11:56:00,
2013-07-17 05:01:00,61.9,55.4,29.88,West,264,0.0,0.0,75,0.00,,---,0.00,cosweather0.1e,2013-07-17 12:01:00,
2013-07-17 05:06:00,61.7,55.4,29.88,SW,222,0.0,0.0,75,0.00,,---,0.00,cosweather0.1e,2013-07-17 12:06:00,
2013-07-17 05:11:00,61.7,55.4,29.92,West,259,0.0,2.2,75,0.00,,---,0.00,cosweather0.1e,2013-07-17 12:11:00,
2013-07-17 05:16:00,61.7,55.4,29.92,West,259,0.0,0.0,75,0.00,,---,0.00,cosweather0.1e,2013-07-17 12:16:00,
2013-07-17 05:21:00,61.7,55.4,29.92,WNW,289,0.0,3.6,75,0.00,,---,0.00,cosweather0.1e,2013-07-17 12:21:00,
2013-07-17 05:26:00,61.7,55.4,29.92,NW,318,0.0,2.7,75,0.00,,---,0.00,cosweather0.1e,2013-07-17 12:26:00,
2013-07-17 05:31:00,61.7,55.4,29.92,West,267,0.0,2.7,76,0.00,,---,0.00,cosweather0.1e,2013-07-17 12:31:00,
2013-07-17 05:36:00,61.5,53.6,29.92,West,276,0.0,3.6,76,0.00,,---,0.00,cosweather0.1e,2013-07-17 12:36:00,
2013-07-17 05:41:00,61.3,53.6,29.92,WSW,253,0.0,0.0,76,0.00,,---,0.00,cosweather0.1e,2013-07-17 12:41:00,
2013-07-17 05:46:00,61.3,53.6,29.92,WNW,297,0.0,3.1,76,0.00,,---,0.00,cosweather0.1e,2013-07-17 12:46:00,
2013-07-17 05:51:00,61.3,53.6,29.92,WNW,299,0.0,3.1,77,0.00,,---,0.00,cosweather0.1e,2013-07-17 12:51:00,
2013-07-17 05:56:00,61.3,53.6,29.92,WNW,291,0.0,4.0,77,0.00,,---,0.00,cosweather0.1e,2013-07-17 12:56:00,
2013-07-17 06:01:00,61.3,53.6,29.92,NNW,330,0.0,2.2,77,0.00,,---,0.00,cosweather0.1e,2013-07-17 13:01:00,
2013-07-17 06:06:00,61.3,53.6,29.92,SW,217,0.0,0.0,77,0.00,,---,0.00,cosweather0.1e,2013-07-17 13:06:00,
2013-07-17 06:11:00,61.3,53.6,29.92,SW,221,0.0,0.0,77,0.00,,---,0.00,cosweather0.1e,2013-07-17 13:11:00,
2013-07-17 06:16:00,61.3,53.6,29.92,South,181,0.0,3.1,77,0.00,,---,0.00,cosweather0.1e,2013-07-17 13:16:00,
2013-07-17 06:21:00,61.3,53.6,29.92,NW,320,0.0,5.4,77,0.00,,---,0.00,cosweather0.1e,2013-07-17 13:21:00,
2013-07-17 06:26:00,61.2,53.6,29.92,SSW,203,0.0,2.7,77,0.00,,---,0.00,cosweather0.1e,2013-07-17 13:26:00,
2013-07-17 06:31:00,61.2,53.6,29.92,SSW,196,0.0,0.0,77,0.00,,---,0.00,cosweather0.1e,2013-07-17 13:31:00,
2013-07-17 06:36:00,61.3,53.6,29.92,West,270,0.0,4.0,77,0.00,,---,0.00,cosweather0.1e,2013-07-17 13:36:00,
2013-07-17 06:41:00,61.3,53.6,29.92,West,264,0.0,4.0,77,0.00,,---,0.00,cosweather0.1e,2013-07-17 13:41:00,
2013-07-17 06:46:00,61.3,53.6,29.92,NW,308,0.0,0.0,78,0.00,,---,0.00,cosweather0.1e,2013-07-17 13:46:00,
2013-07-17 06:51:00,61.3,53.6,29.92,NW,309,0.0,0.0,78,0.00,,---,0.00,cosweather0.1e,2013-07-17 13:51:00,
2013-07-17 06:56:00,61.5,53.6,29.92,WNW,296,0.0,0.0,78,0.00,,---,0.00,cosweather0.1e,2013-07-17 13:56:00,
2013-07-17 07:01:00,61.5,53.6,29.92,West,270,0.0,6.3,78,0.00,,---,0.00,cosweather0.1e,2013-07-17 14:01:00,
2013-07-17 07:06:00,61.3,53.6,29.92,WNW,302,0.0,3.1,78,0.00,,---,0.00,cosweather0.1e,2013-07-17 14:06:00,
2013-07-17 07:11:00,61.3,53.6,29.92,WNW,298,0.0,2.7,78,0.00,,---,0.00,cosweather0.1e,2013-07-17 14:11:00,
2013-07-17 07:16:00,61.3,53.6,29.92,NNW,344,0.0,3.1,78,0.00,,---,0.00,cosweather0.1e,2013-07-17 14:16:00,
2013-07-17 07:21:00,61.3,53.6,29.92,WNW,282,0.0,3.1,78,0.00,,---,0.00,cosweather0.1e,2013-07-17 14:21:00,
2013-07-17 07:26:00,61.3,53.6,29.96,WNW,298,0.0,0.0,78,0.00,,---,0.00,cosweather0.1e,2013-07-17 14:26:00,
2013-07-17 07:31:00,61.3,53.6,29.96,NW,320,0.0,0.0,78,0.00,,---,0.00,cosweather0.1e,2013-07-17 14:31:00,
2013-07-17 07:37:00,61.3,53.6,29.96,NW,314,0.0,0.0,78,0.00,,---,0.00,cosweather0.1e,2013-07-17 14:37:00,
2013-07-17 07:42:00,61.3,53.6,29.96,SSW,211,0.0,0.0,78,0.00,,---,0.00,cosweather0.1e,2013-07-17 14:42:00,
2013-07-17 07:47:00,61.3,53.6,29.96,NW,324,0.0,0.0,78,0.00,,---,0.00,cosweather0.1e,2013-07-17 14:47:00,
2013-07-17 07:52:00,61.3,53.6,29.96,SSW,198,0.0,0.0,78,0.00,,---,0.00,cosweather0.1e,2013-07-17 14:52:00,
2013-07-17 07:57:00,61.3,53.6,29.96,WSW,256,0.0,2.7,78,0.00,,---,0.00,cosweather0.1e,2013-07-17 14:57:00,
2013-07-17 08:02:00,61.2,53.6,29.96,WNW,302,0.0,4.0,78,0.00,,---,0.00,cosweather0.1e,2013-07-17 15:02:00,
2013-07-17 08:07:00,61.2,53.6,29.96,NW,312,0.0,3.6,79,0.00,,---,0.00,cosweather0.1e,2013-07-17 15:07:00,
2013-07-17 08:12:00,61.2,53.6,29.96,WSW,239,0.0,4.0,79,0.00,,---,0.00,cosweather0.1e,2013-07-17 15:12:00,
2013-07-17 08:17:00,61.2,53.6,29.96,WSW,243,0.0,0.0,79,0.00,,---,0.00,cosweather0.1e,2013-07-17 15:17:00,
2013-07-17 08:22:00,61.2,53.6,29.96,North,0,0.0,4.0,79,0.00,,---,0.00,cosweather0.1e,2013-07-17 15:22:00,
2013-07-17 08:27:00,61.3,53.6,29.96,NW,313,0.0,3.1,79,0.00,,---,0.00,cosweather0.1e,2013-07-17 15:27:00,
2013-07-17 08:32:00,61.3,53.6,29.96,WNW,300,0.0,4.9,79,0.00,,---,0.00,cosweather0.1e,2013-07-17 15:32:00,
2013-07-17 08:37:00,61.3,53.6,29.96,WSW,239,0.0,2.7,78,0.00,,---,0.00,cosweather0.1e,2013-07-17 15:37:00,
2013-07-17 08:42:00,61.3,53.6,29.96,NW,311,0.0,3.1,78,0.00,,---,0.00,cosweather0.1e,2013-07-17 15:42:00,
2013-07-17 08:47:00,61.3,53.6,29.96,SSW,205,0.0,0.0,78,0.00,,---,0.00,cosweather0.1e,2013-07-17 15:47:00,
2013-07-17 08:52:00,61.3,53.6,29.96,West,278,0.0,2.7,78,0.00,,---,0.00,cosweather0.1e,2013-07-17 15:52:00,
2013-07-17 08:57:00,61.3,53.6,29.96,NNW,330,0.0,2.2,78,0.00,,---,0.00,cosweather0.1e,2013-07-17 15:57:00,
2013-07-17 09:02:00,61.5,53.6,29.96,SW,233,0.0,5.4,78,0.00,,---,0.00,cosweather0.1e,2013-07-17 16:02:00,
2013-07-17 09:07:00,61.5,53.6,29.96,South,187,0.0,3.6,78,0.00,,---,0.00,cosweather0.1e,2013-07-17 16:07:00,
2013-07-17 09:12:00,61.5,53.6,29.96,NW,308,0.0,3.6,78,0.00,,---,0.00,cosweather0.1e,2013-07-17 16:12:00,
2013-07-17 09:17:00,61.5,53.6,29.96,West,281,0.0,4.5,78,0.00,,---,0.00,cosweather0.1e,2013-07-17 16:17:00,
2013-07-17 09:22:00,61.5,53.6,29.96,NW,305,0.0,3.1,78,0.00,,---,0.00,cosweather0.1e,2013-07-17 16:22:00,
2013-07-17 09:27:00,61.7,55.4,30.00,West,268,0.0,4.0,78,0.00,,---,0.00,cosweather0.1e,2013-07-17 16:27:00,
2013-07-17 09:32:00,61.7,55.4,30.00,SW,222,0.0,2.7,78,0.00,,---,0.00,cosweather0.1e,2013-07-17 16:32:00,
2013-07-17 09:37:00,61.7,55.4,30.00,SW,219,0.0,0.0,78,0.00,,---,0.00,cosweather0.1e,2013-07-17 16:37:00,
2013-07-17 09:42:00,61.7,55.4,30.00,SSW,212,0.0,4.0,78,0.00,,---,0.00,cosweather0.1e,2013-07-17 16:42:00,
2013-07-17 09:47:00,61.9,55.4,30.00,WNW,284,0.0,0.0,78,0.00,,---,0.00,cosweather0.1e,2013-07-17 16:47:00,
2013-07-17 09:52:00,61.9,55.4,30.00,WNW,302,0.0,3.1,77,0.00,,---,0.00,cosweather0.1e,2013-07-17 16:52:00,
2013-07-17 09:57:00,61.9,55.4,30.00,WSW,251,0.0,2.7,77,0.00,,---,0.00,cosweather0.1e,2013-07-17 16:57:00,
2013-07-17 10:02:00,62.1,55.4,30.00,WNW,288,0.0,4.0,77,0.00,,---,0.00,cosweather0.1e,2013-07-17 17:02:00,
2013-07-17 10:07:00,62.1,55.4,30.00,WSW,255,0.0,2.2,77,0.00,,---,0.00,cosweather0.1e,2013-07-17 17:07:00,
2013-07-17 10:12:00,62.1,55.4,29.96,WSW,237,0.0,3.1,77,0.00,,---,0.00,cosweather0.1e,2013-07-17 17:12:00,
2013-07-17 10:17:00,62.2,55.4,29.96,West,277,0.0,4.9,77,0.00,,---,0.00,cosweather0.1e,2013-07-17 17:17:00,
2013-07-17 10:22:00,62.4,55.4,29.96,NNW,329,0.0,5.8,77,0.00,,---,0.00,cosweather0.1e,2013-07-17 17:22:00,
2013-07-17 10:27:00,62.6,55.4,29.96,West,278,0.0,3.1,77,0.00,,---,0.00,cosweather0.1e,2013-07-17 17:27:00,
2013-07-17 10:32:00,62.6,55.4,29.96,WNW,296,0.0,5.4,76,0.00,,---,0.00,cosweather0.1e,2013-07-17 17:32:00,
2013-07-17 10:37:00,62.6,55.4,29.96,NNW,330,0.0,2.7,76,0.00,,---,0.00,cosweather0.1e,2013-07-17 17:37:00,
2013-07-17 10:42:00,62.8,55.4,29.96,NNW,343,0.0,5.4,76,0.00,,---,0.00,cosweather0.1e,2013-07-17 17:42:00,
2013-07-17 10:47:00,63.0,55.4,29.96,West,268,0.0,3.6,75,0.00,,---,0.00,cosweather0.1e,2013-07-17 17:47:00,
2013-07-17 10:52:00,63.0,55.4,29.96,WNW,300,0.0,4.0,75,0.00,,---,0.00,cosweather0.1e,2013-07-17 17:52:00,
2013-07-17 10:57:00,63.1,55.4,30.00,NW,315,0.0,5.8,75,0.00,,---,0.00,cosweather0.1e,2013-07-17 17:57:00,
2013-07-17 11:02:00,63.1,55.4,30.00,WNW,287,0.0,2.7,75,0.00,,---,0.00,cosweather0.1e,2013-07-17 18:02:00,
2013-07-17 11:07:00,63.5,57.2,30.00,NNW,336,0.0,5.4,75,0.00,,---,0.00,cosweather0.1e,2013-07-17 18:07:00,
2013-07-17 11:12:00,63.9,55.4,29.96,NNW,334,0.0,3.1,74,0.00,,---,0.00,cosweather0.1e,2013-07-17 18:12:00,
2013-07-17 11:17:00,64.2,55.4,29.96,NW,304,0.0,4.0,73,0.00,,---,0.00,cosweather0.1e,2013-07-17 18:17:00,
2013-07-17 11:22:00,64.4,55.4,29.96,NNW,338,0.0,2.7,73,0.00,,---,0.00,cosweather0.1e,2013-07-17 18:22:00,
2013-07-17 11:27:00,64.9,55.4,29.96,NW,315,0.0,4.9,72,0.00,,---,0.00,cosweather0.1e,2013-07-17 18:27:00,
2013-07-17 11:32:00,65.5,57.2,29.96,WNW,288,0.0,2.2,72,0.00,,---,0.00,cosweather0.1e,2013-07-17 18:32:00,
2013-07-17 11:37:00,66.0,57.2,29.96,WNW,284,0.0,3.1,71,0.00,,---,0.00,cosweather0.1e,2013-07-17 18:37:00,
2013-07-17 11:42:00,66.4,55.4,29.96,NW,319,0.0,3.6,70,0.00,,---,0.00,cosweather0.1e,2013-07-17 18:42:00,
2013-07-17 11:47:00,66.9,55.4,29.96,NW,311,0.0,2.2,69,0.00,,---,0.00,cosweather0.1e,2013-07-17 18:47:00,
2013-07-17 11:52:00,67.1,57.2,29.96,NNW,337,0.0,6.7,68,0.00,,---,0.00,cosweather0.1e,2013-07-17 18:52:00,
2013-07-17 11:57:00,67.3,55.4,29.96,WNW,290,0.0,4.0,66,0.00,,---,0.00,cosweather0.1e,2013-07-17 18:57:00,
2013-07-17 12:02:00,67.8,55.4,29.96,NW,313,0.0,3.1,66,0.00,,---,0.00,cosweather0.1e,2013-07-17 19:02:00,
2013-07-17 12:07:00,68.2,55.4,29.96,WNW,292,0.0,8.1,65,0.00,,---,0.00,cosweather0.1e,2013-07-17 19:07:00,
2013-07-17 12:12:00,68.5,55.4,29.96,West,262,0.0,4.0,64,0.00,,---,0.00,cosweather0.1e,2013-07-17 19:12:00,
2013-07-17 12:17:00,68.9,57.2,29.96,WSW,247,0.0,5.4,63,0.00,,---,0.00,cosweather0.1e,2013-07-17 19:17:00,
2013-07-17 12:22:00,69.3,55.4,29.96,South,181,0.0,2.7,62,0.00,,---,0.00,cosweather0.1e,2013-07-17 19:22:00,
2013-07-17 12:27:00,69.4,55.4,29.96,South,173,0.0,2.7,61,0.00,,---,0.00,cosweather0.1e,2013-07-17 19:27:00,
2013-07-17 12:32:00,69.6,55.4,29.96,NW,311,0.0,4.0,61,0.00,,---,0.00,cosweather0.1e,2013-07-17 19:32:00,
2013-07-17 12:38:00,70.0,55.4,29.96,WNW,295,0.0,4.9,59,0.00,,---,0.00,cosweather0.1e,2013-07-17 19:38:00,
2013-07-17 12:43:00,70.3,55.4,29.96,North,8,0.0,3.6,59,0.00,,---,0.00,cosweather0.1e,2013-07-17 19:43:00,
2013-07-17 12:48:00,70.5,53.6,29.96,West,271,0.0,3.1,56,0.00,,---,0.00,cosweather0.1e,2013-07-17 19:48:00,
2013-07-17 12:53:00,70.7,55.4,29.96,WSW,240,0.0,2.2,56,0.00,,---,0.00,cosweather0.1e,2013-07-17 19:53:00,
2013-07-17 12:58:00,71.1,55.4,29.96,NW,326,0.0,3.6,57,0.00,,---,0.00,cosweather0.1e,2013-07-17 19:58:00,
2013-07-17 13:03:00,71.6,55.4,29.96,NNW,334,0.0,8.1,55,0.00,,---,0.00,cosweather0.1e,2013-07-17 20:03:00,
2013-07-17 13:08:00,71.6,53.6,29.96,South,185,0.0,5.8,54,0.00,,---,0.00,cosweather0.1e,2013-07-17 20:08:00,
2013-07-17 13:13:00,72.0,53.6,29.96,NW,319,0.0,4.0,54,0.00,,---,0.00,cosweather0.1e,2013-07-17 20:13:00,
2013-07-17 13:18:00,72.1,53.6,29.96,NW,320,0.0,4.0,52,0.00,,---,0.00,cosweather0.1e,2013-07-17 20:18:00,
2013-07-17 13:23:00,72.3,51.8,29.96,NW,307,0.0,5.8,51,0.00,,---,0.00,cosweather0.1e,2013-07-17 20:23:00,
2013-07-17 13:28:00,72.7,55.4,29.96,NW,319,0.0,3.1,52,0.00,,---,0.00,cosweather0.1e,2013-07-17 20:28:00,
2013-07-17 13:33:00,73.4,55.4,29.96,WSW,248,0.0,2.7,52,0.00,,---,0.00,cosweather0.1e,2013-07-17 20:33:00,
2013-07-17 13:38:00,73.6,53.6,29.96,NW,306,0.0,2.7,49,0.00,,---,0.00,cosweather0.1e,2013-07-17 20:38:00,
2013-07-17 13:43:00,73.8,53.6,29.96,WNW,301,0.0,8.1,49,0.00,,---,0.00,cosweather0.1e,2013-07-17 20:43:00,
2013-07-17 13:48:00,74.1,51.8,29.96,North,10,0.0,5.8,48,0.00,,---,0.00,cosweather0.1e,2013-07-17 20:48:00,
2013-07-17 13:53:00,73.9,51.8,29.96,North,0,0.0,5.4,47,0.00,,---,0.00,cosweather0.1e,2013-07-17 20:53:00,
2013-07-17 13:58:00,73.9,51.8,29.96,NW,304,0.0,3.1,46,0.00,,---,0.00,cosweather0.1e,2013-07-17 20:58:00,
2013-07-17 14:03:00,73.9,51.8,29.96,NW,305,0.0,5.8,47,0.00,,---,0.00,cosweather0.1e,2013-07-17 21:03:00,
2013-07-17 14:08:00,74.1,51.8,29.92,NNW,338,0.0,2.7,47,0.00,,---,0.00,cosweather0.1e,2013-07-17 21:08:00,
2013-07-17 14:13:00,74.8,53.6,29.92,WNW,303,0.0,7.6,48,0.00,,---,0.00,cosweather0.1e,2013-07-17 21:13:00,
2013-07-17 14:18:00,75.0,53.6,29.92,NW,319,0.0,5.8,46,0.00,,---,0.00,cosweather0.1e,2013-07-17 21:18:00,
2013-07-17 14:23:00,75.0,51.8,29.92,West,277,0.0,10.5,45,0.00,,---,0.00,cosweather0.1e,2013-07-17 21:23:00,
2013-07-17 14:28:00,75.0,51.8,29.92,NNW,342,0.0,3.1,45,0.00,,---,0.00,cosweather0.1e,2013-07-17 21:28:00,
2013-07-17 14:33:00,74.8,51.8,29.92,WNW,286,0.0,8.1,45,0.00,,---,0.00,cosweather0.1e,2013-07-17 21:33:00,
2013-07-17 14:38:00,74.8,51.8,29.92,NW,306,0.0,8.3,45,0.00,,---,0.00,cosweather0.1e,2013-07-17 21:38:00,
2013-07-17 14:43:00,74.8,53.6,29.92,WNW,300,0.0,8.7,46,0.00,,---,0.00,cosweather0.1e,2013-07-17 21:43:00,
2013-07-17 14:48:00,75.0,53.6,29.92,WNW,301,0.0,5.8,46,0.00,,---,0.00,cosweather0.1e,2013-07-17 21:48:00,
2013-07-17 14:53:00,75.2,51.8,29.92,SW,223,0.0,4.0,45,0.00,,---,0.00,cosweather0.1e,2013-07-17 21:53:00,
2013-07-17 14:58:00,75.2,51.8,29.92,WNW,287,0.0,5.4,45,0.00,,---,0.00,cosweather0.1e,2013-07-17 21:58:00,
2013-07-17 15:03:00,75.4,51.8,29.92,West,279,0.0,2.2,45,0.00,,---,0.00,cosweather0.1e,2013-07-17 22:03:00,
2013-07-17 15:08:00,75.4,51.8,29.92,West,280,0.0,4.9,45,0.00,,---,0.00,cosweather0.1e,2013-07-17 22:08:00,
2013-07-17 15:13:00,75.2,51.8,29.92,WSW,258,0.0,6.7,45,0.00,,---,0.00,cosweather0.1e,2013-07-17 22:13:00,
2013-07-17 15:18:00,75.0,51.8,29.92,WNW,299,0.0,8.3,45,0.00,,---,0.00,cosweather0.1e,2013-07-17 22:18:00,
2013-07-17 15:23:00,75.0,51.8,29.92,NW,311,0.0,3.6,45,0.00,,---,0.00,cosweather0.1e,2013-07-17 22:23:00,
2013-07-17 15:28:00,75.2,51.8,29.92,SSE,157,0.0,4.9,45,0.00,,---,0.00,cosweather0.1e,2013-07-17 22:28:00,
2013-07-17 15:33:00,75.2,51.8,29.92,NW,314,0.0,7.6,45,0.00,,---,0.00,cosweather0.1e,2013-07-17 22:33:00,
2013-07-17 15:38:00,75.2,51.8,29.92,WNW,282,0.0,5.4,45,0.00,,---,0.00,cosweather0.1e,2013-07-17 22:38:00,
2013-07-17 15:43:00,75.2,51.8,29.92,North,3,0.0,6.3,45,0.00,,---,0.00,cosweather0.1e,2013-07-17 22:43:00,
2013-07-17 15:48:00,75.0,53.6,29.92,WNW,294,0.0,6.3,46,0.00,,---,0.00,cosweather0.1e,2013-07-17 22:48:00,
2013-07-17 15:53:00,75.0,53.6,29.92,WNW,286,0.0,3.1,46,0.00,,---,0.00,cosweather0.1e,2013-07-17 22:53:00,
2013-07-17 15:58:00,75.0,53.6,29.92,NW,317,0.0,5.4,46,0.00,,---,0.00,cosweather0.1e,2013-07-17 22:58:00,
2013-07-17 16:03:00,75.0,53.6,29.92,NW,305,0.0,7.6,46,0.00,,---,0.00,cosweather0.1e,2013-07-17 23:03:00,
2013-07-17 16:08:00,74.7,53.6,29.92,NNW,342,0.0,4.0,46,0.00,,---,0.00,cosweather0.1e,2013-07-17 23:08:00,
2013-07-17 16:13:00,74.5,53.6,29.92,NW,307,0.0,2.2,46,0.00,,---,0.00,cosweather0.1e,2013-07-17 23:13:00,
2013-07-17 16:18:00,74.1,51.8,29.92,NW,306,0.0,3.6,47,0.00,,---,0.00,cosweather0.1e,2013-07-17 23:18:00,
2013-07-17 16:23:00,73.9,51.8,29.92,North,350,0.0,6.3,47,0.00,,---,0.00,cosweather0.1e,2013-07-17 23:23:00,
2013-07-17 16:28:00,73.9,51.8,29.92,NNE,16,0.0,5.4,48,0.00,,---,0.00,cosweather0.1e,2013-07-17 23:28:00,
2013-07-17 16:33:00,73.8,51.8,29.92,NW,309,0.0,8.1,48,0.00,,---,0.00,cosweather0.1e,2013-07-17 23:33:00,
2013-07-17 16:38:00,73.8,51.8,29.88,NNW,331,0.0,9.6,48,0.00,,---,0.00,cosweather0.1e,2013-07-17 23:38:00,
2013-07-17 16:43:00,73.6,51.8,29.88,NW,321,0.0,5.4,48,0.00,,---,0.00,cosweather0.1e,2013-07-17 23:43:00,
2013-07-17 16:48:00,73.4,51.8,29.88,NW,326,0.0,8.3,48,0.00,,---,0.00,cosweather0.1e,2013-07-17 23:48:00,
2013-07-17 16:49:00,73.4,51.8,29.88,North,353,0.0,8.7,48,0.00,,---,0.00,cosweather0.1e,2013-07-17 23:49:00,
2013-07-17 16:54:00,73.0,53.6,29.88,West,281,0.0,7.6,49,0.00,,---,0.00,cosweather0.1e,2013-07-17 23:54:00,
2013-07-17 16:59:00,73.0,53.6,29.88,North,349,0.0,5.4,49,0.00,,---,0.00,cosweather0.1e,2013-07-17 23:59:00,
2013-07-17 17:04:00,72.9,53.6,29.88,NNW,333,0.0,6.3,49,0.00,,---,0.00,cosweather0.1e,2013-07-18 00:04:00,
2013-07-17 17:09:00,72.7,53.6,29.88,West,266,0.0,5.4,49,0.00,,---,0.00,cosweather0.1e,2013-07-18 00:09:00,
2013-07-17 17:14:00,72.7,53.6,29.88,NNW,327,0.0,8.1,49,0.00,,---,0.00,cosweather0.1e,2013-07-18 00:14:00,
2013-07-17 17:19:00,72.5,53.6,29.88,NNW,335,0.0,5.4,49,0.00,,---,0.00,cosweather0.1e,2013-07-18 00:19:00,
2013-07-17 17:24:00,72.5,53.6,29.88,NW,304,0.0,6.3,49,0.00,,---,0.00,cosweather0.1e,2013-07-18 00:24:00,
2013-07-17 17:29:00,72.3,51.8,29.88,NW,324,0.0,6.3,50,0.00,,---,0.00,cosweather0.1e,2013-07-18 00:29:00,
2013-07-17 17:34:00,72.1,51.8,29.88,NNW,329,0.0,7.6,49,0.00,,---,0.00,cosweather0.1e,2013-07-18 00:34:00,
2013-07-17 17:39:00,72.0,51.8,29.88,NW,310,0.0,5.8,49,0.00,,---,0.00,cosweather0.1e,2013-07-18 00:39:00,
2013-07-17 17:44:00,72.0,51.8,29.88,NW,310,0.0,7.6,50,0.00,,---,0.00,cosweather0.1e,2013-07-18 00:44:00,
2013-07-17 17:49:00,71.8,51.8,29.88,WNW,293,0.0,7.6,50,0.00,,---,0.00,cosweather0.1e,2013-07-18 00:49:00,
2013-07-17 17:54:00,71.6,51.8,29.88,NW,320,0.0,6.3,50,0.00,,---,0.00,cosweather0.1e,2013-07-18 00:54:00,
2013-07-17 17:59:00,71.4,51.8,29.88,WNW,292,0.0,4.0,51,0.00,,---,0.00,cosweather0.1e,2013-07-18 00:59:00,
2013-07-17 18:04:00,71.4,51.8,29.88,WNW,285,0.0,4.0,51,0.00,,---,0.00,cosweather0.1e,2013-07-18 01:04:00,
2013-07-17 18:09:00,71.2,51.8,29.88,NNW,339,0.0,6.3,51,0.00,,---,0.00,cosweather0.1e,2013-07-18 01:09:00,
2013-07-17 18:14:00,71.1,51.8,29.88,NNW,343,0.0,7.2,51,0.00,,---,0.00,cosweather0.1e,2013-07-18 01:14:00,
2013-07-17 18:19:00,70.9,53.6,29.88,WNW,285,0.0,5.4,52,0.00,,---,0.00,cosweather0.1e,2013-07-18 01:19:00,
2013-07-17 18:24:00,70.7,53.6,29.88,NW,324,0.0,6.3,53,0.00,,---,0.00,cosweather0.1e,2013-07-18 01:24:00,
2013-07-17 18:29:00,70.5,51.8,29.88,NW,305,0.0,6.3,53,0.00,,---,0.00,cosweather0.1e,2013-07-18 01:29:00,
2013-07-17 18:34:00,70.5,51.8,29.88,WSW,247,0.0,4.5,53,0.00,,---,0.00,cosweather0.1e,2013-07-18 01:34:00,
2013-07-17 18:39:00,70.3,51.8,29.88,NNW,333,0.0,6.3,53,0.00,,---,0.00,cosweather0.1e,2013-07-18 01:39:00,
2013-07-17 18:44:00,70.2,51.8,29.88,NW,326,0.0,4.9,53,0.00,,---,0.00,cosweather0.1e,2013-07-18 01:44:00,
2013-07-17 18:49:00,70.2,51.8,29.88,NW,307,0.0,3.6,53,0.00,,---,0.00,cosweather0.1e,2013-07-18 01:49:00,
2013-07-17 18:54:00,69.8,51.8,29.88,WNW,302,0.0,4.9,53,0.00,,---,0.00,cosweather0.1e,2013-07-18 01:54:00,
2013-07-17 18:59:00,69.4,53.6,29.88,NNW,332,0.0,6.3,55,0.00,,---,0.00,cosweather0.1e,2013-07-18 01:59:00,
2013-07-17 19:00:00,69.4,53.6,29.88,SW,236,0.0,5.4,55,0.00,,---,0.00,cosweather0.1e,2013-07-18 02:00:00,
2013-07-17 19:05:00,69.3,53.6,29.88,NW,315,0.0,8.3,55,0.00,,---,0.00,cosweather0.1e,2013-07-18 02:05:00,
2013-07-17 19:10:00,69.1,53.6,29.88,NW,315,0.0,3.6,55,0.00,,---,0.00,cosweather0.1e,2013-07-18 02:10:00,
2013-07-17 19:15:00,68.9,53.6,29.88,NW,305,0.0,5.8,56,0.00,,---,0.00,cosweather0.1e,2013-07-18 02:15:00,
2013-07-17 19:20:00,68.7,51.8,29.88,NNW,338,0.0,4.0,57,0.00,,---,0.00,cosweather0.1e,2013-07-18 02:20:00,
2013-07-17 19:25:00,68.5,51.8,29.88,NW,313,0.0,5.8,57,0.00,,---,0.00,cosweather0.1e,2013-07-18 02:25:00,
2013-07-17 19:30:00,68.2,51.8,29.88,NNW,345,0.0,4.9,57,0.00,,---,0.00,cosweather0.1e,2013-07-18 02:30:00,
2013-07-17 20:08:00,68.0,53.6,29.88,WNW,301,0.0,3.1,58,0.00,,---,0.00,cosweather0.1e,2013-07-18 03:08:00,
2013-07-17 20:13:00,66.2,53.6,29.88,North,6,0.0,3.1,63,0.00,,---,0.00,cosweather0.1e,2013-07-18 03:13:00,
2013-07-17 20:18:00,65.8,53.6,29.88,NW,320,0.0,5.8,64,0.00,,---,0.00,cosweather0.1e,2013-07-18 03:18:00,
2013-07-17 20:23:00,65.7,53.6,29.88,NE,39,0.0,4.9,64,0.00,,---,0.00,cosweather0.1e,2013-07-18 03:23:00,
2013-07-17 20:28:00,65.5,53.6,29.88,NNW,331,0.0,3.6,65,0.00,,---,0.00,cosweather0.1e,2013-07-18 03:28:00,
2013-07-17 20:33:00,65.1,51.8,29.88,NNW,330,0.0,5.8,65,0.00,,---,0.00,cosweather0.1e,2013-07-18 03:33:00,
2013-07-17 20:38:00,64.9,53.6,29.88,NNW,333,0.0,4.0,66,0.00,,---,0.00,cosweather0.1e,2013-07-18 03:38:00,
2013-07-17 20:43:00,64.8,53.6,29.92,NNW,335,0.0,3.1,66,0.00,,---,0.00,cosweather0.1e,2013-07-18 03:43:00,
2013-07-17 20:48:00,64.6,53.6,29.92,NNW,334,0.0,6.3,67,0.00,,---,0.00,cosweather0.1e,2013-07-18 03:48:00,
2013-07-17 20:53:00,64.4,53.6,29.92,WNW,303,0.0,3.6,67,0.00,,---,0.00,cosweather0.1e,2013-07-18 03:53:00,
2013-07-17 20:58:00,64.2,53.6,29.88,North,357,0.0,4.0,68,0.00,,---,0.00,cosweather0.1e,2013-07-18 03:58:00,
2013-07-17 21:01:00,64.2,53.6,29.88,NW,312,0.0,3.6,68,0.00,,---,0.00,cosweather0.1e,2013-07-18 04:01:00,
2013-07-17 21:02:00,64.2,53.6,29.88,NW,319,0.0,4.9,68,0.00,,---,0.00,cosweather0.1e,2013-07-18 04:02:00,
2013-07-17 21:07:00,63.9,53.6,29.92,North,0,0.0,3.1,69,0.00,,---,0.00,cosweather0.1e,2013-07-18 04:07:00,
2013-07-17 21:13:00,63.5,53.6,29.92,NW,309,0.0,5.4,69,0.00,,---,0.00,cosweather0.1e,2013-07-18 04:13:00,
2013-07-17 21:18:00,63.3,53.6,29.92,NNW,345,0.0,6.3,70,0.00,,---,0.00,cosweather0.1e,2013-07-18 04:18:00,
2013-07-17 21:23:00,63.0,53.6,29.92,NNW,332,0.0,3.6,70,0.00,,---,0.00,cosweather0.1e,2013-07-18 04:23:00,
2013-07-17 21:28:00,63.0,53.6,29.92,NNW,346,0.0,3.1,71,0.00,,---,0.00,cosweather0.1e,2013-07-18 04:28:00,
2013-07-17 21:33:00,62.8,53.6,29.92,NNW,342,0.0,2.7,71,0.00,,---,0.00,cosweather0.1e,2013-07-18 04:33:00,
2013-07-17 21:38:00,62.6,53.6,29.92,NW,316,0.0,4.9,71,0.00,,---,0.00,cosweather0.1e,2013-07-18 04:38:00,
2013-07-17 21:43:00,62.6,53.6,29.92,NNW,338,0.0,5.8,71,0.00,,---,0.00,cosweather0.1e,2013-07-18 04:43:00,
2013-07-17 21:48:00,62.6,53.6,29.92,NW,326,0.0,3.6,71,0.00,,---,0.00,cosweather0.1e,2013-07-18 04:48:00,
2013-07-17 21:53:00,62.4,53.6,29.92,North,357,0.0,3.6,72,0.00,,---,0.00,cosweather0.1e,2013-07-18 04:53:00,
2013-07-17 21:58:00,62.4,53.6,29.92,North,357,0.0,3.6,72,0.00,,---,0.00,cosweather0.1e,2013-07-18 04:58:00,
2013-07-17 22:03:00,62.2,53.6,29.92,North,353,0.0,5.4,72,0.00,,---,0.00,cosweather0.1e,2013-07-18 05:03:00,
2013-07-17 22:08:00,62.2,53.6,29.92,WNW,298,0.0,3.6,72,0.00,,---,0.00,cosweather0.1e,2013-07-18 05:08:00,
2013-07-17 22:13:00,62.2,53.6,29.92,NNW,334,0.0,2.2,72,0.00,,---,0.00,cosweather0.1e,2013-07-18 05:13:00,
2013-07-17 22:18:00,62.2,53.6,29.92,North,350,0.0,5.4,72,0.00,,---,0.00,cosweather0.1e,2013-07-18 05:18:00,
2013-07-17 22:23:00,62.1,53.6,29.92,NNW,333,0.0,4.0,72,0.00,,---,0.00,cosweather0.1e,2013-07-18 05:23:00,
2013-07-17 22:28:00,61.9,53.6,29.92,North,3,0.0,3.6,72,0.00,,---,0.00,cosweather0.1e,2013-07-18 05:28:00,
2013-07-17 22:33:00,61.9,53.6,29.92,North,357,0.0,2.7,72,0.00,,---,0.00,cosweather0.1e,2013-07-18 05:33:00,
2013-07-17 22:38:00,61.5,51.8,29.92,North,0,0.0,4.9,72,0.00,,---,0.00,cosweather0.1e,2013-07-18 05:38:00,
2013-07-17 22:43:00,61.3,51.8,29.92,NW,321,0.0,3.6,73,0.00,,---,0.00,cosweather0.1e,2013-07-18 05:43:00,
2013-07-17 22:48:00,61.3,51.8,29.92,North,10,0.0,3.1,73,0.00,,---,0.00,cosweather0.1e,2013-07-18 05:48:00,
2013-07-17 22:53:00,61.3,51.8,29.92,North,2,0.0,3.1,73,0.00,,---,0.00,cosweather0.1e,2013-07-18 05:53:00,
2013-07-17 22:58:00,61.3,51.8,29.92,North,357,0.0,0.0,73,0.00,,---,0.00,cosweather0.1e,2013-07-18 05:58:00,
2013-07-17 23:03:00,61.3,51.8,29.92,North,7,0.0,3.1,73,0.00,,---,0.00,cosweather0.1e,2013-07-18 06:03:00,
2013-07-17 23:08:00,61.2,51.8,29.92,North,0,0.0,2.7,73,0.00,,---,0.00,cosweather0.1e,2013-07-18 06:08:00,
2013-07-17 23:13:00,61.2,51.8,29.92,North,353,0.0,4.9,73,0.00,,---,0.00,cosweather0.1e,2013-07-18 06:13:00,
2013-07-17 23:18:00,61.2,51.8,29.92,NE,47,0.0,4.0,73,0.00,,---,0.00,cosweather0.1e,2013-07-18 06:18:00,
2013-07-17 23:23:00,61.0,51.8,29.96,NNE,18,0.0,2.7,74,0.00,,---,0.00,cosweather0.1e,2013-07-18 06:23:00,
2013-07-17 23:28:00,61.0,53.6,29.96,NE,35,0.0,3.6,75,0.00,,---,0.00,cosweather0.1e,2013-07-18 06:28:00,
2013-07-17 23:33:00,60.8,53.6,29.96,North,357,0.0,4.9,76,0.00,,---,0.00,cosweather0.1e,2013-07-18 06:33:00,
2013-07-17 23:38:00,60.6,53.6,29.96,North,0,0.0,4.0,77,0.00,,---,0.00,cosweather0.1e,2013-07-18 06:38:00,
2013-07-17 23:43:00,60.8,53.6,29.96,North,357,0.0,0.0,76,0.00,,---,0.00,cosweather0.1e,2013-07-18 06:43:00,
2013-07-17 23:48:00,60.8,53.6,29.96,North,353,0.0,3.6,76,0.00,,---,0.00,cosweather0.1e,2013-07-18 06:48:00,
2013-07-17 23:53:00,60.8,53.6,29.96,NNW,330,0.0,3.1,76,0.00,,---,0.00,cosweather0.1e,2013-07-18 06:53:00,
2013-07-17 23:58:00,61.0,53.6,29.92,WNW,286,0.0,2.7,76,0.00,,---,0.00,cosweather0.1e,2013-07-18 06:58:00,